Location: Lango�lan
(48.1202°N, 3.2340°W)
Time: 15:06:32
(UTC+00:00)

In-Cosmos 22 - Pass Details

Date: 23 October 2019
Orbit: 785 x 876 km, 81.2° (Epoch: 16 November)

Event Time Altitude Azimuth Distance (km) Brightness Sun altitude
Rises 05:30:07 0° 210° (SSW) 3,298 7.0 -12.9°
Reaches altitude 10° 05:32:35 10° 217° (SW) 2,383 6.2 -12.5°
Maximum altitude 05:37:41 43° 289° (WNW) 1,145 4.5 -11.7°
Drops below altitude 10° 05:42:57 10° 0° (N) 2,456 6.6 -10.8°
Sets 05:45:33 0° 8° (N) 3,410 7.4 -10.4°
